Location: Home
(42.5358°N, 72.7383°W)
Time: 09:26:49
(UTC-04:00)

Kosmos-337 - Pass Details

Date: 12 July 2022
Orbit: 1467 x 1552 km, 74.0° (Epoch: 16 August)

Event Time Altitude Azimuth Distance (km) Brightness Sun altitude
Rises 02:06:04 0° 332° (NNW) 4,726 ? -23.5°
Reaches altitude 10° 02:09:24 10° 324° (NW) 3,733 ? -23.4°
Maximum altitude 02:17:09 33° 265° (W) 2,353 ? -22.9°
Enters shadow 02:19:54 28° 235° (SW) 2,555 ? -22.7°
